SCP
0 0 0 0 0 0 0 0 1 1 1 0 1 2 3 3 3 3 3 4 4 4 4 4 4 4 6 11 21 26 19 13 10 9 7 6 4 3 4 5 7 8 8 7
0 0 0 0 0 0 0 0 1 1 1 0 1 2 2 3 3 3 3 4 4 4 4 4 5 5 6 11 17 22 20 14 10 8 7 5 4 4 4 5 7 9 10 10
0 0 0 0 0 0 0 0 1 1 1 1 1 1 2 3 3 3 3 3 4 4 5 6 6 6 7 9 12 15 16 14 10 8 6 6 5 5 5 6 8 11 13 13
0 0 0 0 0 0 0 0 1 1 1 1 1 1 1 2 2 2 3 3 4 5 7 8 8 7 7 8 9 9 11 12 10 8 6 7 8 8 8 9 11 12 11 10
0 0 0 0 0 0 0 0 0 1 1 1 1 1 1 2 2 3 3 4 5 6 8 10 10 8 7 7 8 9 9 10 9 7 6 7 8 9 10 11 11 9 7 6
0 0 0 0 0 0 0 0 1 1 1 1 1 1 1 2 2 3 4 6 6 6 8 11 11 10 9 8 9 11 12 11 9 8 6 6 8 10 11 10 9 7 6 5
0 0 0 0 0 0 0 1 1 2 1 1 1 1 2 2 3 4 6 9 9 7 8 11 12 11 11 11 11 13 13 12 10 8 7 7 7 9 10 9 7 6 6 5
0 0 0 0 0 0 1 1 2 2 1 1 1 1 2 2 3 4 6 9 10 9 9 11 12 12 11 11 12 13 13 12 10 9 8 7 7 7 7 7 6 6 6 6
0 0 0 0 0 1 1 1 1 1 1 1 1 2 2 3 3 4 4 6 8 9 9 10 12 12 10 10 12 13 13 12 10 9 8 8 7 6 6 6 6 6 6 6
0 0 0 0 1 1 1 1 1 1 1 1 2 2 3 3 4 4 3 4 7 8 7 8 10 10 9 10 14 15 13 11 10 8 8 7 7 6 6 7 8 7 7 7
0 0 0 0 1 1 1 0 0 1 1 1 2 2 3 3 3 4 3 5 7 7 6 7 8 8 9 11 13 13 12 10 9 8 7 7 6 6 6 7 8 8 7 7
0 0 0 0 0 0 0 0 0 1 1 1 1 2 3 3 3 3 4 6 7 7 6 6 7 7 8 9 8 8 8 8 7 7 6 6 6 5 6 6 7 7 6 6
1 1 1 0 0 0 0 0 1 1 1 1 2 2 4 4 3 3 4 6 7 7 7 6 6 7 7 5 4 4 4 5 5 4 5 5 5 5 5 5 5 5 5 5
1 1 1 0 0 0 0 0 0 1 1 1 2 3 4 4 4 4 5 6 7 8 8 8 7 7 6 4 3 3 3 3 3 3 4 5 5 6 6 6 5 5 5 5
1 1 1 0 0 0 0 0 0 1 1 1 2 3 4 4 4 4 5 6 8 9 9 9 8 7 5 4 3 3 3 3 3 3 3 4 5 6 6 6 5 5 5 4
1 1 1 0 0 0 1 1 1 1 1 1 2 3 5 4 4 4 5 6 7 8 8 8 7 6 5 4 4 4 4 4 3 3 3 4 5 5 5 5 5 5 5 5
2 2 1 1 1 1 1 2 2 3 3 3 4 5 5 5 4 4 5 5 6 6 5 5 5 5 5 5 5 4 4 4 3 3 3 4 4 5 5 5 5 5 5 5
2 2 2 1 1 1 2 2 3 4 6 7 7 6 6 5 5 4 4 4 5 5 4 4 4 4 5 6 6 5 4 4 4 3 3 3 4 5 5 5 5 5 5 5
2 2 2 2 1 2 2 3 3 4 6 7 7 6 5 4 4 3 3 4 4 5 5 5 4 4 6 8 7 5 4 4 4 3 2 3 4 4 5 5 6 6 5 5
1 2 2 2 1 1 2 3 3 4 4 5 5 4 4 3 3 3 4 5 6 6 6 5 5 5 8 8 7 6 5 5 4 4 3 3 4 5 5 6 6 6 5 4
1 1 2 1 1 1 1 2 3 4 4 4 4 4 4 4 4 6 8 9 8 7 7 6 5 6 7 7 7 7 6 6 5 4 4 4 4 5 5 6 7 6 5 4
1 1 1 1 1 1 1 2 3 4 4 3 3 3 4 5 6 7 9 9 8 7 6 6 5 6 7 6 7 7 7 7 6 5 5 5 5 5 5 6 7 6 5 4
1 2 2 2 2 2 3 3 3 3 3 3 3 3 4 5 5 6 6 6 6 6 6 5 5 5 6 6 7 7 7 7 7 6 6 6 6 6 6 6 6 6 5 4
2 2 2 3 3 3 3 3 3 3 2 3 3 3 3 3 4 5 6 6 6 6 7 6 4 5 5 5 6 6 6 6 6 6 5 6 6 6 6 6 5 5 5 4
2 2 3 3 4 4 4 4 3 3 3 3 3 2 2 2 3 5 7 8 7 7 7 6 5 5 5 5 4 4 5 5 6 5 4 4 5 5 6 5 5 4 4 3
3 3 3 4 4 5 5 4 4 4 4 4 3 2 2 2 3 5 7 9 8 8 7 6 5 5 6 5 4 3 4 5 5 4 3 3 4 4 4 5 4 3 3 2
Wind_Speed
13 13 14 15 17 14 12 10 10 11 8 8 9 9 9 9 9 8 8 8 8 9 8 8 8 7 6 5 5 5 4 4 3 2 3 2 2 1 1 1 2 2 1 0
13 17 17 15 13 12 14 13 12 10 7 8 9 9 9 10 10 9 8 8 7 8 8 9 9 9 7 5 5 5 4 4 3 2 1 2 2 1 1 1 2 1 1 0
17 13 14 13 12 11 14 13 11 8 8 8 8 10 11 10 8 7 7 7 7 8 9 9 10 9 9 7 5 5 4 4 2 2 1 1 1 1 1 2 2 1 1 1
16 14 11 12 12 12 13 12 10 10 10 9 10 10 9 9 10 10 9 7 7 7 9 9 10 10 9 9 7 6 5 4 3 2 1 1 2 1 1 1 1 1 1 0
14 13 12 13 12 12 12 10 9 11 11 12 12 11 8 9 10 11 10 8 6 6 8 9 8 8 9 9 8 7 6 4 3 2 2 1 1 1 1 1 1 1 1 1
14 13 12 11 11 10 10 10 10 11 11 14 13 12 7 5 7 9 8 7 6 5 6 7 7 8 7 7 8 8 6 4 3 2 2 1 1 2 1 1 1 1 1 1
16 15 13 11 11 10 10 9 8 9 10 12 10 10 5 6 5 6 7 7 7 6 6 6 7 7 7 7 7 8 7 5 4 3 2 1 1 2 1 0 0 0 1 1
13 13 14 12 13 11 11 12 10 9 9 9 8 8 5 5 7 7 6 6 7 6 6 6 6 6 7 8 7 7 7 5 5 4 3 2 1 1 1 1 1 1 1 1
9 10 10 11 12 13 12 12 13 11 13 11 7 5 4 4 6 6 6 7 6 6 6 6 6 5 5 6 6 7 7 6 5 4 3 3 2 1 1 1 0 1 1 1
11 9 9 10 9 12 13 10 8 9 9 11 9 7 5 6 4 5 5 5 6 5 6 7 7 6 5 5 6 6 6 6 5 4 3 3 2 2 1 1 1 1 1 1
11 9 10 11 12 11 12 13 11 8 9 9 9 4 1 5 4 5 6 7 6 6 6 6 7 6 6 6 6 5 5 5 5 4 3 2 2 2 2 1 1 1 1 1
8 7 9 12 10 10 11 12 11 9 9 10 10 4 1 3 4 5 5 6 7 6 6 6 6 5 5 5 4 4 4 4 4 4 4 3 3 3 2 1 1 1 1 0
5 5 8 9 8 8 10 11 11 10 9 10 11 3 3 2 1 3 3 5 6 6 5 6 5 3 4 4 4 3 3 3 4 4 4 3 3 2 2 2 2 1 1 1
4 6 9 10 8 8 11 12 11 11 9 10 10 4 2 3 2 2 3 4 5 6 5 5 4 3 2 3 3 3 3 2 2 3 4 3 3 3 3 2 2 1 1 1
4 8 10 12 13 12 12 12 12 12 11 10 8 4 2 3 2 2 3 3 4 5 5 4 3 3 2 2 2 2 2 2 2 2 3 4 3 3 3 2 2 1 1 1
3 7 10 12 13 12 12 11 11 11 10 10 9 4 1 3 2 1 1 2 2 3 4 4 3 3 2 2 1 2 1 1 1 2 2 3 3 3 3 3 2 1 1 1
5 6 9 10 11 12 12 9 8 8 7 8 7 3 1 1 1 1 1 2 2 3 2 3 3 2 2 2 1 1 1 2 2 2 3 3 4 3 3 3 2 1 1 1
6 6 6 8 9 12 5 3 5 5 5 5 3 1 1 2 2 3 2 1 2 2 2 2 2 2 1 2 2 1 1 1 1 2 2 2 3 3 3 3 2 1 1 0
7 7 7 7 9 9 6 4 5 4 5 3 2 2 2 3 2 3 3 3 3 3 2 1 1 0 1 2 2 1 1 1 2 1 1 2 2 2 2 2 2 1 1 1
9 7 8 8 9 9 4 2 4 3 4 2 2 2 2 3 3 1 3 2 2 2 2 1 1 1 1 2 2 1 1 1 2 1 1 1 1 2 2 2 2 2 2 2
10 10 10 10 10 7 1 3 3 4 0 3 3 2 1 1 2 2 2 2 2 2 2 1 1 1 1 2 2 2 2 1 2 1 1 1 1 2 3 2 2 2 2 2
7 8 9 8 9 6 3 3 1 2 2 2 3 2 2 2 2 2 3 3 2 2 1 1 1 1 2 2 2 2 2 1 2 1 1 1 1 3 3 2 2 3 3 3
4 3 2 3 2 1 4 4 3 2 3 3 3 3 2 1 1 2 2 1 1 1 1 1 1 1 2 2 1 2 2 2 2 1 1 2 2 2 2 3 3 3 3 3
3 2 2 1 2 2 1 2 2 1 1 2 3 3 3 1 1 2 2 2 1 2 1 1 0 0 1 1 1 1 1 2 2 2 2 2 2 2 2 2 2 3 2 2
4 3 2 2 2 1 1 1 2 3 3 2 3 3 3 2 2 2 2 2 1 2 1 0 1 1 2 1 1 1 1 1 2 2 2 2 2 2 1 1 1 1 0 1
2 2 3 2 2 2 0 1 1 1 1 1 1 2 2 2 2 2 2 2 1 1 1 1 1 2 2 1 1 2 2 2 2 3 2 3 3 2 2 2 1 2 1 1
Wind_Direction
212 225 226 224 227 243 254 262 259 252 227 217 228 224 226 212 201 205 198 193 185 177 161 140 139 140 135 131 135 134 141 137 155 174 190 196 192 182 162 140 113 118 115 109
217 226 234 239 238 245 256 251 250 249 232 230 240 236 232 221 206 204 203 194 191 171 152 148 150 152 144 142 147 137 142 144 168 172 189 186 180 178 161 115 115 134 133 101
228 227 226 237 242 243 251 255 255 258 256 241 244 246 236 227 211 200 203 191 190 172 158 160 159 156 150 152 157 155 145 140 154 151 184 189 145 174 141 139 136 127 91 90
234 239 235 230 236 240 248 249 259 260 258 257 242 250 230 214 203 195 204 198 185 178 162 165 163 159 158 159 160 140 129 132 147 164 176 182 166 154 117 111 119 131 137 125
235 235 237 234 233 238 252 264 260 262 259 263 254 254 237 210 203 191 192 193 180 172 163 163 159 155 159 157 151 139 134 141 147 160 153 160 131 102 95 93 137 162 149 128
245 238 237 239 241 243 257 262 256 255 255 251 250 256 240 218 203 188 178 182 168 165 159 155 148 147 148 145 138 132 137 145 144 147 143 155 113 92 79 94 120 158 133 122
235 235 233 235 236 232 237 246 249 242 238 246 242 242 235 195 165 174 172 165 161 159 155 147 139 140 139 135 135 139 149 149 145 144 139 129 118 140 125 74 89 66 95 118
231 228 223 223 231 232 228 235 241 251 257 264 256 244 218 181 138 144 145 142 138 145 148 145 137 135 140 146 140 140 144 145 148 148 141 124 126 159 119 80 8 49 38 81
246 236 227 224 226 230 229 235 243 256 270 269 253 251 170 148 132 132 142 151 151 151 143 133 126 128 139 137 137 141 141 144 150 150 149 140 144 126 95 110 90 50 25 60
261 260 238 224 226 233 242 248 255 253 267 271 265 238 216 176 165 152 160 160 150 149 139 137 130 133 130 132 128 132 142 149 153 147 159 154 145 132 126 128 107 77 49 57
244 259 249 231 225 230 232 237 244 257 260 269 272 270 190 163 172 184 179 163 161 154 141 133 135 135 131 129 135 139 147 151 149 149 147 138 141 146 153 145 116 95 68 56
237 252 257 248 242 240 244 243 242 248 254 263 270 265 116 142 177 178 167 153 145 144 139 130 128 135 134 130 127 135 149 153 154 156 155 154 155 152 150 142 127 99 64 59
254 248 253 249 240 240 251 251 252 248 255 260 264 246 145 126 140 142 124 122 124 129 129 131 129 131 142 142 143 153 159 153 157 163 157 154 158 160 160 165 158 162 175 213
241 246 248 251 255 250 254 253 252 253 253 260 263 242 193 148 120 109 135 141 138 136 135 132 126 127 136 137 143 149 152 145 146 151 153 161 174 177 176 173 171 164 184 206
240 249 252 256 259 254 255 261 256 256 261 264 269 252 207 119 121 178 163 144 138 134 132 128 133 136 141 135 138 149 146 129 143 165 165 172 185 180 176 170 166 155 219 203
217 260 261 255 253 257 260 258 252 253 260 264 270 267 203 118 143 194 162 145 142 140 141 140 133 131 140 146 165 171 151 153 174 202 183 172 183 176 174 175 165 157 142 77
225 248 264 260 260 259 250 263 257 254 269 267 269 264 268 98 111 84 156 159 153 150 138 124 114 119 129 147 150 186 183 183 187 204 196 181 180 176 180 181 150 146 147 138
241 245 253 261 258 248 255 273 274 270 279 278 285 307 21 39 50 55 55 100 120 106 94 81 86 97 129 142 141 136 216 216 208 207 192 178 175 173 169 150 142 145 145 205
214 233 245 253 251 251 254 268 266 269 286 310 319 350 10 14 22 63 45 45 58 79 84 98 104 84 116 130 130 145 201 210 218 226 210 182 172 169 168 160 159 170 197 231
200 211 236 247 253 253 240 247 291 268 247 0 1 354 354 338 295 358 40 35 46 65 71 96 111 107 125 126 132 159 211 216 233 242 262 237 188 183 179 169 181 197 207 220
207 211 226 241 250 257 283 314 284 244 296 348 329 336 317 320 334 341 355 48 68 67 70 91 118 130 114 124 142 178 218 239 260 253 242 214 200 188 177 173 188 208 221 230
223 226 229 237 242 240 295 280 311 44 27 352 354 21 32 46 59 36 17 33 58 56 78 115 127 136 141 149 168 195 210 245 255 245 231 230 224 221 191 178 203 217 222 232
236 261 245 225 234 38 17 34 69 72 31 7 17 18 41 55 35 24 36 39 68 57 46 81 136 154 160 162 192 223 219 231 241 236 220 227 230 217 195 200 213 220 222 236
236 267 265 222 180 140 86 39 35 46 32 10 16 20 21 27 41 34 55 71 77 70 33 40 358 282 240 204 216 239 235 220 221 212 209 227 227 206 197 212 222 225 227 237
308 291 275 265 262 228 159 87 35 15 15 16 16 13 10 4 43 50 56 66 61 57 19 309 277 273 262 238 219 236 236 208 216 218 220 231 232 214 213 209 273 245 231 271
275 285 269 265 285 287 353 9 10 358 344 345 359 2 352 345 27 50 61 52 37 36 10 294 269 261 256 242 245 257 233 210 219 219 222 233 227 207 212 202 181 38 178 189